Weather in Arapiraca

Brazil     9°45′25″S   36°37′38″W
temp.,
°C
wind,
m/s
gust,
m/s
humid.,
%
clouds,
%
prec.,
mm/h
press.,
hPa
HPBL,
m
29 june, wed
wed2900:00+20s1191100 0.1 101851
03:00+19ssw129620 0.2 101821
06:00+18sw119754 0.0 101811
09:00+22s458449 0.2 1019695
12:00+24sse558060 0.6 1017903
15:00+23se568338 1.3 1016713
18:00+20se35935 0.1 1017120
21:00+19se22940 0.1 101821
30 june, thu
thu3000:00+18ese11922 0.0 101711
03:00+18se11935 0.0 101611
06:00+18sse009419 0.0 101711
09:00+23sse248222 0.0 1017594
12:00+25se447657 0.2 1016955
15:00+25se457986 0.6 1014866
18:00+22ese379476 0.3 1015244
21:00+21se239785 0.4 101783
1 july, fri
fri100:00+21sse2699100 0.5 1016262
03:00+21sse2799100 0.9 1015341
06:00+21sse2798100 0.4 1016350
09:00+23se489051 1.4 1017579
12:00+24se688881 2.7 1016814
15:00+24se698971 5.4 1015802
18:00+21se399623 1.3 1016383
21:00+20sse289956 1.8 1018291
2 july, sat
sat200:00+20sse279982 0.7 1017271
03:00+20sse2798100 2.2 1016337
06:00+20se2698100 1.4 1017336
09:00+22se379461 2.9 1019472
12:00+25se7108444 3.0 1018951
15:00+24se7108722 5.1 1016867
18:00+21se4119435 0.7 1018498
21:00+20se3109771 1.1 1019442
3 july, sun
sun300:00+21se4119294 0.6 1019555
03:00+20se4119396 0.8 1017471
06:00+20se4129422 0.1 1019504
09:00+24se697634 0.1 1020931
12:00+25se687871 0.4 1019984
15:00+24ese698165 1.3 10171090
18:00+21se3109527 0.1 1019380
21:00+20se3109854 0.3 1020428